RASAT

Satellite information

Favourite Embed

Satellite Type and Status

PAYLOADIN ORBIT

Key statistics

Satellite RASAT at a glance.

Uptime

5233

Days in orbit

Revolutions

≈ 14.7

Per day

Orbit

SSO

Sun Synchronous Orbit

Inclination

98.1

Latest

Satellite identification and parameters

Extended collection of information and parameters for RASAT.

Object identification

Identified? True

Debris? False

Object name: RASAT

International designator: 2011-044D

Object number (NORAD): 37791

Object ID (CCSDS): 37791

Country: TURKEY (TURK)

Current information (Y/N): Y

RCS size: MEDIUM

Orbital parameters

Period: 98.098 minutes

Inclination: 98.0645 deg

SMA: 7045.872 km

Apoapsis: 683.138 km

Periapsis: 652.336 km

RAAN: 76.974 deg

Eccentricy: 0.00218586

Argument of periapsis: 62.0603 deg

Mean anomaly: 66.0324 deg

Mean motion: 14.67914135 rev/day

Mean motion (dot): 0.00001462 rev/day2

B* drag term: 0.00026323163 1/REarth

Two-line elements (TLE)

Creation date: Dec. 14, 2025, 3:07 a.m.

Reference frame: TEME

Reference center: EARTH

Epoch: Dec. 13, 2025, 5:33 p.m. UTC

TLE line 0: 0 RASAT

TLE line 1: 1 37791U 11044D 25347.73158168 .00001462 00000-0 26323-3 0 9999

TLE line 2: 2 37791 98.0645 76.9740 0021859 62.0603 66.0324 14.67914135765972

Live tracking on map

Real-time ground track for satellite RASAT.

In-orbit conjunctions

There are no conjunctions computed for RASAT, at the moment. Check back to stay up to date, as we update our databases every day.

Go to all conjunctions

Associated space launch

RASAT was lifted into orbit during the mission ‘Dnepr 1 | Sich-2’, on board a Dnepr space rocket.

The launch took place on Aug. 17, 2011, 7:12 a.m. from 370/13.

For more information about the launch, click the button.

Launch to space Dnepr 1 | Sich-2
Dnepr 1 | Sich-2

Agency: N/A

Status: Launch Successful

Launch date: Aug. 17, 2011, 7:12 a.m. UTC

Rocket: Dnepr

Launch pad: 370/13

Location: Dombarovskiy, Russian Federation

...

Latest news about this satellite

There are no fresh news available about this satellite. Check back as we update our databases every day.


Newsletter sign-up

Weekly statistics, charts and insights to help you stay on top of the space industry.